Location: Nelson
(38.9945°N, 93.0321°W)
Time: 16:05:38
(UTC+00:00)

ACS3 Solar Sail - Pass Details

Date: 28 June 2024
Orbit: 993 x 1023 km, 97.4° (Epoch: 19 July)

Event Time Altitude Azimuth Distance (km) Brightness Sun altitude
Exits shadow 05:25:39 - 243° (WSW) 2,936 7.2 -26.7°
Reaches altitude 10° 05:26:49 10° 253° (WSW) 2,759 7.1 -26.7°
Maximum altitude 05:29:00 12° 274° (W) 2,620 7.2 -26.8°
Drops below altitude 10° 05:31:12 10° 295° (WNW) 2,762 7.6 -26.9°
Sets 05:35:43 0° 325° (NW) 3,715 8.9 -27.1°
